User: anonymous   Login
Location: Nitra
(48.3167°N, 18.0833°E)
Time: 02:35:21
(UTC+01:00)
Language:

STARLINK-1739 - Orbit

View from above orbital plane
View from above orbital plane
View from above satellite
View from above satellite

Ground track
Ground track

The orbit data is extracted from the following two-line orbital elements,

1 46363U 20062AQ  20334.58335648  .00026857  00000-0  29842-3 0  9992
2 46363  52.9972   2.9328 0002625  16.5756 129.3356 15.62729690 14446
Epoch (UTC): 29 November 2020 14:00:02
Eccentricity: 0.0002625
inclination: 52.9972°
perigee height: 378 km
apogee height: 381 km
right ascension of ascending node: 2.9328°
argument of perigee: 16.5756°
revolutions per day: 15.62729690
mean anomaly at epoch: 129.3356°
orbit number at epoch: 1444

The dashed part of the orbit path shows where the satellite is in the earth's shadow,  

DLR